Weather in Hlynsk

Ukraine / Kirovohrad Region     48°57′13″N   32°54′05″E
temp.,
°C
wind,
m/s
gust,
m/s
humid.,
%
clouds,
%
prec.,
mm/h
press.,
hPa
HPBL,
m
17 september, fri
fri1700:00+14se22526 0.0 101827
03:00+12s33585 0.0 101844
06:00+12s346155 0.0 101768
09:00+17s564098 0.0 1016333
12:00+23s453351 0.0 10141219
15:00+25ssw563039 0.0 10121635
18:00+23sw3438100 0.1 1011134
21:00+20ssw5104794 0.1 1011293
18 september, sat
sat1800:00+19ssw5135296 0.3 1011614
03:00+16s61383100 2.3 1010474
06:00+16s91589100 0.4 1009583
09:00+15sse81583100 1.2 1009547
12:00+19s101363100 0.3 1008903
15:00+19sse81365100 0.8 1007915
18:00+16s71485100 2.4 1007653
21:00+16s51189100 6.9 1007651
19 september, sun
sun1900:00+16nw4893100 4.0 1007448
03:00+14wnw489157 4.1 1008292
06:00+12w35905 0.0 1009136
09:00+14w237566 0.0 1010292
12:00+16wsw2367100 0.0 1009533
15:00+20s365546 0.0 10081025
18:00+16wsw597699 1.7 1007359
21:00+11wnw488886 1.7 1010446
20 september, mon
mon2000:00+9w4881100 0.0 1010492
03:00+9wsw5879100 0.0 1010767
06:00+9wsw4772100 0.0 1010792
09:00+9wsw5772100 0.1 10101077
12:00+9wsw6878100 0.1 1011896
15:00+11wsw6969100 0.1 10121063
18:00+9wsw6981100 0.2 1013948
21:00+9w698388 0.2 1014628
21 september, tue
tue2100:00+9w5984100 0.1 1015638
03:00+7w589161 0.1 1016321
06:00+8wsw5880100 0.0 1016591
09:00+10w585943 0.0 10161241
12:00+12w6750100 0.0 10161561
15:00+12w6847100 0.0 10161665
18:00+11wnw6105154 0.0 10161541
21:00+8wsw486586 0.0 1016370